[[[{"header":{"parameterUnit":"kt","parameterCategory":2,"dx":1,"dy":1,"la1":30.253999710083008,"la2":30.299108505249023,"lo1":-89.0895004272461,"lo2":-89.04439544677734,"nx":28,"ny":28,"refTime":"2022-10-29T21:00:00:Z","depth":"0","parameterNumber":2,"parameterNumberName":"U-component_of_CURRENTS"},"data":[0.3776,0.3859,0.389,0.3978,0.4051,0.4125,0.4202,0.4154,0.4079,0.3655,0.3192,0.2981,0.2422,0.1624,0.0994,0.0948,0.0933,0.0742,0.1005,0.1407,0.1513,0.1615,0.145,0.0608,0.0607,0.0216,0.0212,0.021,0.3755,0.3831,0.3931,0.4057,0.414,0.4257,0.4473,0.4485,0.4542,0.4486,0.4475,0.3868,0.3393,0.2969,0.2214,0.191,0.1917,0.1791,0.1656,0.1739,0.2368,0.2205,0.1509,0.1509,0.1509,0.1509,0.151,0.151,0.3749,0.381,0.3925,0.4027,0.4171,0.4342,0.4442,0.4619,0.4793,0.4835,0.5003,0.4813,0.438,0.3968,0.3816,0.313,0.3432,0.2871,0.2922,0.2915,0.2746,0.3386,0.3059,0.3063,0.3068,0.3071,0.3075,0,0.3751,0.3799,0.3905,0.4025,0.4157,0.4348,0.4555,0.4675,0.4947,0.5051,0.5159,0.5194,0.5043,0.4694,0.4448,0.4312,0.4049,0.4149,0.3983,0.3332,0.3128,0.307,0.3964,0.3775,0.3785,0.3791,0.3796,0.38,0.3757,0.3797,0.3977,0.4047,0.4138,0.4328,0.4475,0.4719,0.4869,0.5112,0.5185,0.5265,0.5314,0.5207,0.499,0.4843,0.4777,0.4374,0.4295,0.4003,0.397,0.3912,0.3891,0.3899,0.3886,0.3876,0.3868,0,0.3766,0.3849,0.3967,0.4159,0.4225,0.4335,0.4622,0.4763,0.493,0.5117,0.5171,0.5342,0.5364,0.5402,0.542,0.5287,0.5001,0.5136,0.4731,0.4633,0.4099,0.4095,0.3808,0.3753,0.4816,0.481,0.4804,0,0.382,0.3901,0.4048,0.4111,0.4256,0.4418,0.461,0.4742,0.4949,0.5102,0.5225,0.5334,0.5419,0.5456,0.5426,0.5294,0.546,0.5162,0.5114,0.4813,0.476,0.4516,0.4491,0.547,0.5471,0.5471,0.5471,0,0.3839,0.3988,0.4079,0.4146,0.4357,0.4451,0.4574,0.478,0.4909,0.5086,0.5167,0.5331,0.5388,0.5421,0.5392,0.5384,0.5425,0.5411,0.5149,0.5127,0.4787,0.4728,0.4537,0.5471,0.5472,0.5472,0.5472,0,0.3913,0.3977,0.4087,0.4285,0.4333,0.442,0.4636,0.4746,0.4937,0.5008,0.5154,0.5213,0.534,0.5285,0.5375,0.5347,0.5315,0.5298,0.5297,0.5006,0.4907,0.4549,0.4529,0.4298,0.5212,0.5211,0.521,0,0.3934,0.402,0.4095,0.4221,0.4287,0.4421,0.4526,0.4669,0.4757,0.4867,0.4984,0.5087,0.5084,0.5133,0.5193,0.5198,0.5234,0.5201,0.5161,0.5159,0.4908,0.4975,0.4609,0.4535,0.5193,0.5195,0.5196,0,0.3938,0.4062,0.4072,0.414,0.4266,0.4336,0.4446,0.4579,0.4671,0.4737,0.4852,0.4977,0.5006,0.5051,0.5084,0.5125,0.5196,0.5058,0.5057,0.5039,0.5256,0.4983,0.4967,0.5204,0.5207,0.521,0.5183,0,0.4035,0.4063,0.4084,0.4158,0.4227,0.4296,0.44,0.4453,0.4491,0.4553,0.4692,0.473,0.4822,0.4856,0.4851,0.4995,0.4935,0.4923,0.4866,0.4963,0.493,0.4941,0.4776,0.4774,0.4772,0.477,0,0,0.4029,0.4044,0.408,0.4122,0.4191,0.4252,0.4314,0.4355,0.4418,0.4473,0.4434,0.4581,0.4599,0.4762,0.4794,0.4788,0.4773,0.4774,0.4905,0.492,0.4934,0.4909,0.4922,0.4767,0.4766,0.4765,0.4764,0,0.4056,0.4057,0.4064,0.4123,0.4206,0.4248,0.4269,0.4331,0.4354,0.4409,0.4434,0.4505,0.4538,0.461,0.4649,0.4749,0.4715,0.4759,0.4834,0.4886,0.4903,0.4919,0.4899,0.4912,0.4759,0.476,0.476,0,0.4076,0.4102,0.4111,0.4152,0.4192,0.4249,0.4248,0.4303,0.4355,0.433,0.4365,0.4399,0.4437,0.4514,0.4543,0.4507,0.4639,0.46,0.4611,0.4615,0.4664,0.4685,0.4703,0.4468,0.4468,0.4467,0,0,0.4092,0.4096,0.4168,0.4167,0.4196,0.4243,0.4263,0.4292,0.4323,0.4321,0.4327,0.4352,0.4413,0.443,0.4462,0.4512,0.4495,0.4569,0.4582,0.4594,0.4604,0.4657,0.4676,0.4465,0.4465,0.4465,0,0,0.4112,0.4173,0.4185,0.4176,0.4235,0.4288,0.4294,0.4307,0.4309,0.4314,0.4315,0.4319,0.4389,0.4371,0.434,0.4467,0.4405,0.4411,0.4493,0.4509,0.4523,0.4532,0.4327,0,0,0,0,0,0.4198,0.4175,0.4186,0.4195,0.4227,0.4288,0.4292,0.4306,0.4296,0.4292,0.4304,0.4298,0.4364,0.4336,0.4341,0.442,0.4435,0.4441,0.4446,0.4563,0.4581,0.4596,0,0,0,0,0,0,0.4202,0.421,0.4189,0.4241,0.4252,0.4285,0.4276,0.4277,0.4296,0.4293,0.4296,0.4299,0.4301,0.4334,0.4338,0.4415,0.4325,0.4438,0.4442,0.4446,0.457,0.4584,0.4597,0,0,0,0,0,0.4206,0.4213,0.4252,0.4241,0.4249,0.4283,0.4273,0.4275,0.4266,0.4302,0.4302,0.4281,0.4301,0.4305,0.4336,0.4414,0.4322,0.4324,0.444,0.4444,0.4447,0.4577,0,0,0,0,0,0,0.421,0.4186,0.4255,0.426,0.4241,0.428,0.4281,0.4273,0.4271,0.4275,0.4289,0.4287,0.4301,0.4304,0.4308,0.4416,0.432,0.4322,0.4323,0.4443,0.4446,0.4448,0,0,0,0,0,0,0.4186,0.4189,0.4256,0.4255,0.4259,0.4277,0.4279,0.4297,0.427,0.4252,0.4254,0.4289,0.4315,0.4304,0.4306,0.4333,0.4318,0.432,0.4321,0.4321,0.4445,0.4447,0,0,0,0,0,0,0.4188,0.4191,0.4252,0.4255,0.4258,0.43,0.4293,0.4321,0.4275,0.425,0.4274,0.4274,0.4316,0.4317,0.4306,0.4331,0.4332,0.4318,0.4319,0.432,0.4321,0,0,0,0,0,0,0,0.419,0.4158,0.4248,0.4255,0.4258,0.4312,0.4311,0.431,0.4275,0.4275,0.4274,0.4274,0.431,0.4311,0.4313,0.4329,0,0,0.4318,0.4319,0,0,0,0,0,0,0,0,0.4158,0.4158,0.4248,0.4251,0.4253,0.4312,0.4311,0.431,0.4275,0.4275,0.4274,0.4274,0.431,0.4311,0.4313,0,0,0,0,0,0,0,0,0,0,0,0,0,0,0,0.4249,0.4251,0,0.4312,0.4311,0.431,0.4275,0.4275,0.4274,0.4274,0.431,0.4311,0.4313,0,0,0,0,0,0,0,0,0,0,0,0,0,0,0,0,0,0,0,0,0,0,0,0,0,0,0,0,0,0,0,0,0,0,0,0,0,0,0,0,0,0,0,0,0,0,0,0,0,0,0,0,0,0,0,0,0,0,0,0,0,0,0,0,0,0,0,0,0]}],[{"header":{"parameterUnit":"kt","parameterCategory":2,"dx":1,"dy":1,"la1":30.253999710083008,"la2":30.299108505249023,"lo1":-89.0895004272461,"lo2":-89.04439544677734,"nx":28,"ny":28,"refTime":"2022-10-29T21:00:00:Z","depth":"0","parameterNumber":3,"parameterNumberName":"V-component_of_CURRENTS"},"data":[0.053,0.0605,0.0646,0.0815,0.0905,0.106,0.1154,0.1413,0.1652,0.2075,0.2303,0.2433,0.2333,0.2075,0.1915,0.1851,0.1849,0.1819,0.1805,0.1682,0.1658,0.1636,0.1652,0.1855,0.1855,0.2025,0.2026,0.2027,0.0508,0.0555,0.0636,0.0749,0.0843,0.0871,0.0999,0.113,0.1382,0.166,0.1918,0.2124,0.2179,0.2037,0.1798,0.1694,0.1641,0.1619,0.1629,0.1671,0.1505,0.1522,0.1701,0.1701,0.1701,0.17,0.17,0.17,0.0468,0.0511,0.0575,0.0665,0.0739,0.0829,0.0907,0.101,0.1146,0.1383,0.1458,0.1767,0.1788,0.1743,0.163,0.1452,0.1413,0.1387,0.1377,0.1357,0.1432,0.1199,0.1362,0.136,0.1359,0.1358,0.1357,0,0.0441,0.0464,0.0508,0.0605,0.0662,0.0721,0.0777,0.0814,0.0842,0.0962,0.1171,0.1322,0.1418,0.1523,0.1428,0.1353,0.1194,0.1159,0.1174,0.1271,0.1239,0.1306,0.1053,0.1211,0.1208,0.1207,0.1205,0.1205,0.0402,0.0434,0.0503,0.0548,0.0577,0.0622,0.0654,0.0645,0.0681,0.0791,0.0858,0.0991,0.1152,0.1223,0.1162,0.1127,0.1086,0.1111,0.105,0.104,0.1042,0.1021,0.1069,0.1181,0.1184,0.1186,0.1188,0,0.0381,0.0406,0.0462,0.0501,0.0521,0.0553,0.0583,0.0604,0.0606,0.0689,0.0716,0.0794,0.0912,0.0889,0.0952,0.0886,0.0956,0.0903,0.0957,0.0983,0.1001,0.0989,0.1133,0.1204,0.0937,0.0938,0.094,0,0.0356,0.0391,0.0432,0.0456,0.0502,0.0494,0.0529,0.0526,0.054,0.0593,0.0581,0.0669,0.068,0.0745,0.0708,0.0767,0.0793,0.0735,0.0755,0.0825,0.083,0.0888,0.0882,0.0748,0.0747,0.0747,0.0746,0,0.0324,0.0373,0.0411,0.0423,0.0449,0.0459,0.0464,0.046,0.0468,0.0501,0.0539,0.056,0.0623,0.0635,0.0648,0.0612,0.0735,0.0701,0.0717,0.0717,0.0836,0.0844,0.0959,0.0746,0.0745,0.0745,0.0745,0,0.0303,0.0335,0.038,0.0409,0.0418,0.043,0.0438,0.0438,0.0448,0.045,0.0464,0.0478,0.0502,0.0474,0.0536,0.0512,0.0517,0.0531,0.0535,0.0586,0.0579,0.0721,0.0794,0.082,0.0557,0.0556,0.0554,0,0.027,0.0321,0.0326,0.0362,0.0391,0.0378,0.0378,0.0376,0.0377,0.0404,0.0392,0.0416,0.0364,0.0378,0.0396,0.0433,0.0448,0.0394,0.0524,0.0527,0.0554,0.0601,0.0696,0.0765,0.0537,0.0539,0.054,0,0.0245,0.0286,0.0292,0.0314,0.0324,0.0338,0.0334,0.0343,0.0352,0.0352,0.0382,0.0348,0.0354,0.0354,0.0338,0.0367,0.0414,0.0379,0.0383,0.0403,0.0542,0.057,0.0584,0.0457,0.0459,0.0461,0.0526,0,0.0241,0.026,0.0273,0.03,0.0307,0.0323,0.0324,0.0326,0.0323,0.0327,0.0333,0.0328,0.0343,0.0325,0.0307,0.0338,0.0344,0.0364,0.0378,0.0392,0.0414,0.0425,0.0302,0.0302,0.0303,0.0303,0,0,0.0214,0.0241,0.0249,0.0272,0.0281,0.0279,0.0298,0.03,0.0312,0.0315,0.0312,0.0325,0.0315,0.0317,0.0305,0.0305,0.034,0.0309,0.0372,0.038,0.0387,0.0409,0.0419,0.0303,0.0304,0.0304,0.0304,0,0.0219,0.0223,0.0243,0.0255,0.0273,0.028,0.0281,0.03,0.0302,0.0309,0.0306,0.0302,0.0312,0.0312,0.0311,0.0308,0.0342,0.0306,0.0306,0.0373,0.0379,0.0386,0.0408,0.0417,0.0305,0.0305,0.0305,0,0.0212,0.0226,0.0231,0.0251,0.0265,0.0281,0.0281,0.0293,0.0299,0.03,0.031,0.0308,0.0312,0.0314,0.0315,0.0318,0.0351,0.032,0.0319,0.0331,0.0402,0.0409,0.0415,0.0338,0.0338,0.0338,0,0,0.0218,0.023,0.0247,0.0253,0.0262,0.0276,0.0283,0.0289,0.0298,0.0301,0.0308,0.0313,0.0312,0.0313,0.0321,0.0322,0.0356,0.0323,0.0322,0.032,0.0332,0.0401,0.0407,0.0338,0.0338,0.0338,0,0,0.022,0.0242,0.0243,0.0253,0.0266,0.0287,0.0295,0.0297,0.0305,0.0302,0.0308,0.0309,0.0309,0.0317,0.0315,0.0323,0.0331,0.0331,0.0313,0.0311,0.0309,0.0321,0.0326,0,0,0,0,0,0.0233,0.0239,0.024,0.0242,0.0266,0.0285,0.0289,0.03,0.0297,0.0304,0.0304,0.031,0.0319,0.0318,0.032,0.0317,0.0338,0.0338,0.0338,0.0315,0.0313,0.0311,0,0,0,0,0,0,0.0235,0.0238,0.0239,0.0259,0.0264,0.0285,0.0287,0.0291,0.0297,0.0298,0.031,0.0311,0.0319,0.0318,0.0319,0.0317,0.0325,0.0338,0.0338,0.0338,0.0314,0.0312,0.0311,0,0,0,0,0,0.0236,0.0239,0.0272,0.026,0.0264,0.028,0.0287,0.0291,0.0297,0.0307,0.0309,0.0303,0.0319,0.032,0.0319,0.0316,0.0324,0.0325,0.0338,0.0338,0.0338,0.0313,0,0,0,0,0,0,0.0236,0.0247,0.0273,0.0275,0.0256,0.028,0.0283,0.029,0.0306,0.0308,0.0301,0.0302,0.0319,0.032,0.0321,0.0315,0.0323,0.0324,0.0324,0.0338,0.0338,0.0338,0,0,0,0,0,0,0.0245,0.0249,0.0274,0.0268,0.027,0.0279,0.0282,0.0289,0.0306,0.03,0.0301,0.0301,0.0309,0.032,0.0321,0.0331,0.0323,0.0323,0.0324,0.0324,0.0338,0.0338,0,0,0,0,0,0,0.0247,0.025,0.0268,0.0269,0.0271,0.0296,0.0284,0.0304,0.0312,0.0299,0.0311,0.0311,0.0308,0.031,0.032,0.033,0.0331,0.0323,0.0323,0.0323,0.0324,0,0,0,0,0,0,0,0.0249,0.0225,0.0258,0.027,0.0271,0.0293,0.0293,0.0294,0.0312,0.0311,0.0311,0.0311,0.032,0.032,0.0321,0.033,0,0,0.0323,0.0323,0,0,0,0,0,0,0,0,0.0224,0.0224,0.0258,0.0259,0.0259,0.0293,0.0293,0.0294,0.0312,0.0311,0.0311,0.0311,0.032,0.032,0.0321,0,0,0,0,0,0,0,0,0,0,0,0,0,0,0,0.0258,0.0259,0,0.0293,0.0293,0.0294,0.0312,0.0311,0.0311,0.0311,0.032,0.032,0.0321,0,0,0,0,0,0,0,0,0,0,0,0,0,0,0,0,0,0,0,0,0,0,0,0,0,0,0,0,0,0,0,0,0,0,0,0,0,0,0,0,0,0,0,0,0,0,0,0,0,0,0,0,0,0,0,0,0,0,0,0,0,0,0,0,0,0,0,0,0]}]],[[{"header":{"parameterUnit":"kt","parameterCategory":2,"dx":1,"dy":1,"la1":30.253999710083008,"la2":30.299108505249023,"lo1":-89.0895004272461,"lo2":-89.04439544677734,"nx":28,"ny":28,"refTime":"2022-10-29T21:00:00:Z","depth":"2","parameterNumber":2,"parameterNumberName":"U-component_of_CURRENTS"},"data":[0.2413,0.2412,0.2395,0.2379,0.2413,0.2335,0.2302,0.2141,0.2033,0.1794,0.1629,0.1554,0.1603,0.1131,0.1027,0.0832,0.1138,0.0755,0.157,0.1753,0.1825,0.1992,0.1745,0,0,0,0,0,0.242,0.2431,0.2464,0.2478,0.248,0.2585,0.2581,0.2455,0.2408,0.2387,0.2334,0.1944,0.1719,0.1733,0.1413,0.1318,0.1375,0.1253,0.1339,0.142,0.1493,0.1279,0.0693,0.0691,0.0689,0.0687,0,0,0.246,0.2455,0.2521,0.2539,0.2589,0.2625,0.2582,0.2666,0.2708,0.2721,0.2828,0.2716,0.2684,0.233,0.2176,0.2068,0.233,0.2184,0.2219,0.2264,0.2082,0.1966,0.1711,0.1715,0.1719,0.1722,0.1725,0,0.2461,0.2497,0.253,0.2576,0.2628,0.2648,0.2735,0.2756,0.2865,0.2967,0.3088,0.3129,0.3182,0.295,0.2833,0.2731,0.2862,0.2686,0.3353,0.2617,0.2517,0.2485,0.2511,0.2395,0.2404,0.241,0.2415,0.2418,0.2501,0.2498,0.2569,0.2594,0.2652,0.2701,0.2733,0.2829,0.2873,0.3086,0.3154,0.337,0.3409,0.3474,0.335,0.3269,0.3449,0.2892,0.2806,0.3326,0.3292,0.3289,0.3285,0.251,0.2498,0.2488,0.2481,0,0.2518,0.2558,0.2571,0.2648,0.2684,0.2713,0.28,0.2828,0.2971,0.3061,0.3133,0.3363,0.3503,0.3599,0.3724,0.3618,0.3598,0.3532,0.318,0.3097,0.3338,0.3324,0.336,0.3351,0.3343,0.3336,0.3331,0,0.256,0.2577,0.2638,0.2655,0.2695,0.2725,0.2784,0.2867,0.2964,0.3013,0.3153,0.3261,0.3466,0.3563,0.357,0.3563,0.372,0.3522,0.3488,0.3209,0.3158,0.3681,0.3664,0.382,0.3819,0.3818,0.3817,0,0.2602,0.2623,0.2629,0.2637,0.2692,0.2752,0.28,0.2885,0.2918,0.3043,0.3134,0.3254,0.3407,0.3464,0.3551,0.3556,0.3722,0.3719,0.3496,0.3478,0.3197,0.3144,0.3816,0.3816,0.3816,0.3815,0.3815,0,0.2646,0.2648,0.2649,0.2687,0.2687,0.2742,0.2821,0.2851,0.2969,0.3007,0.3119,0.3176,0.3336,0.3321,0.3512,0.3466,0.3494,0.3554,0.3558,0.3276,0.3185,0.2981,0.297,0.3569,0.3566,0.3564,0.3562,0,0.2692,0.2682,0.269,0.2716,0.2702,0.2763,0.2811,0.2866,0.2913,0.2995,0.3087,0.3156,0.3184,0.3237,0.3309,0.3382,0.3442,0.3363,0.3441,0.3443,0.3182,0.3234,0.2899,0.2961,0.3536,0.3538,0.3541,0,0.2711,0.2719,0.2732,0.2734,0.2752,0.2759,0.2812,0.2858,0.2905,0.2987,0.3052,0.3127,0.3169,0.3182,0.321,0.3286,0.3394,0.327,0.327,0.3323,0.3521,0.3233,0.3224,0.3383,0.3386,0.3389,0.3519,0,0.2741,0.2744,0.2742,0.2752,0.276,0.2764,0.2781,0.2844,0.2883,0.2904,0.2993,0.3027,0.308,0.3101,0.3096,0.3192,0.3187,0.3152,0.3125,0.3196,0.324,0.3257,0.3034,0.3033,0.3032,0.3031,0,0,0.2776,0.2743,0.2753,0.2746,0.2743,0.2785,0.2778,0.2806,0.2846,0.287,0.2882,0.2973,0.2971,0.3037,0.306,0.3042,0.3073,0.3047,0.3149,0.3162,0.3174,0.3221,0.3238,0.3028,0.3028,0.3028,0.3027,0,0.2765,0.275,0.2746,0.2756,0.2755,0.2763,0.2785,0.2797,0.2819,0.2856,0.2872,0.2931,0.294,0.2961,0.2965,0.3022,0.3019,0.3018,0.3087,0.3136,0.3151,0.3164,0.3213,0.3229,0.3024,0.3024,0.3024,0,0.277,0.2754,0.2756,0.2737,0.2737,0.2743,0.2753,0.2764,0.2785,0.2791,0.2842,0.2864,0.2861,0.2889,0.2908,0.289,0.2977,0.2924,0.293,0.295,0.2999,0.3016,0.3031,0.2843,0.2842,0.2842,0,0,0.2769,0.2768,0.2747,0.2731,0.2728,0.2739,0.2748,0.2759,0.2777,0.2798,0.2822,0.2834,0.2847,0.2864,0.2862,0.2885,0.2901,0.2903,0.2912,0.2919,0.2943,0.2994,0.3009,0.284,0.284,0.284,0,0,0.2773,0.275,0.2748,0.2712,0.2727,0.2714,0.2723,0.2751,0.2788,0.2791,0.2798,0.2802,0.2848,0.2832,0.2814,0.2855,0.2818,0.2821,0.2871,0.2881,0.2889,0.2919,0.2777,0,0,0,0,0,0.2771,0.2748,0.2745,0.2736,0.2696,0.2703,0.2704,0.2722,0.2746,0.2776,0.2797,0.278,0.2821,0.2805,0.2803,0.2832,0.282,0.2824,0.2827,0.2896,0.2907,0.2916,0,0,0,0,0,0,0.2768,0.2755,0.2746,0.2722,0.2714,0.2702,0.2699,0.2704,0.2745,0.2753,0.2774,0.2777,0.2758,0.2804,0.2802,0.2831,0.2777,0.2821,0.2824,0.2827,0.2899,0.2908,0.2916,0,0,0,0,0,0.2765,0.2754,0.2683,0.2724,0.2716,0.2729,0.2701,0.2706,0.2757,0.2728,0.2735,0.2778,0.2757,0.2759,0.2803,0.2832,0.2778,0.2778,0.2823,0.2826,0.2828,0.2904,0,0,0,0,0,0,0.2762,0.2766,0.2683,0.2682,0.2744,0.2734,0.2731,0.2707,0.2732,0.2737,0.2725,0.273,0.2755,0.2757,0.2758,0.2835,0.2779,0.2778,0.2778,0.2825,0.2827,0.2829,0,0,0,0,0,0,0.2772,0.2765,0.2682,0.2706,0.2709,0.2738,0.2736,0.2724,0.2733,0.2729,0.2733,0.2727,0.276,0.2755,0.2756,0.2737,0.2779,0.2779,0.2778,0.2778,0.2827,0.2828,0,0,0,0,0,0,0.2769,0.2764,0.2707,0.2709,0.2711,0.2706,0.273,0.2695,0.2733,0.2728,0.2739,0.2742,0.2757,0.2759,0.2755,0.2734,0.2736,0.2779,0.2779,0.2779,0.2778,0,0,0,0,0,0,0,0.2768,0.2797,0.2684,0.2711,0.2713,0.2674,0.2674,0.2674,0.2734,0.2736,0.2739,0.2741,0.2781,0.2781,0.278,0.2732,0,0,0.2779,0.2779,0,0,0,0,0,0,0,0,0.28,0.2797,0.2684,0.2684,0.2683,0.2674,0.2674,0.2674,0.2734,0.2736,0.2738,0.274,0.2781,0.2781,0.278,0,0,0,0,0,0,0,0,0,0,0,0,0,0,0,0.2684,0.2684,0,0.2674,0.2674,0.2674,0.2735,0.2736,0.2738,0.2739,0.2781,0.2781,0.278,0,0,0,0,0,0,0,0,0,0,0,0,0,0,0,0,0,0,0,0,0,0,0,0,0,0,0,0,0,0,0,0,0,0,0,0,0,0,0,0,0,0,0,0,0,0,0,0,0,0,0,0,0,0,0,0,0,0,0,0,0,0,0,0,0,0,0,0,0]}],[{"header":{"parameterUnit":"kt","parameterCategory":2,"dx":1,"dy":1,"la1":30.253999710083008,"la2":30.299108505249023,"lo1":-89.0895004272461,"lo2":-89.04439544677734,"nx":28,"ny":28,"refTime":"2022-10-29T21:00:00:Z","depth":"2","parameterNumber":3,"parameterNumberName":"V-component_of_CURRENTS"},"data":[0.0538,0.0648,0.0706,0.0938,0.106,0.1311,0.148,0.1739,0.1867,0.2039,0.2007,0.2017,0.1766,0.1483,0.128,0.1076,0.099,0.1005,0.1111,0.1108,0.1108,0.0939,0.0924,0,0,0,0,0,0.0498,0.0568,0.0679,0.085,0.0991,0.1046,0.1307,0.1487,0.178,0.1894,0.2046,0.1855,0.175,0.1509,0.1173,0.1015,0.0957,0.0902,0.0874,0.0875,0.0874,0.086,0.0877,0.0876,0.0875,0.0874,0,0,0.0434,0.0496,0.059,0.0719,0.0843,0.103,0.1187,0.1349,0.1552,0.1755,0.1812,0.1885,0.1746,0.1486,0.1324,0.1065,0.1086,0.0952,0.095,0.0947,0.094,0.0899,0.0977,0.0977,0.0977,0.0977,0.0977,0,0.0404,0.0434,0.051,0.0641,0.0747,0.0892,0.1024,0.1119,0.1252,0.1365,0.1557,0.1653,0.159,0.1516,0.1313,0.1214,0.0994,0.0986,0.0982,0.0894,0.0849,0.0841,0.0832,0.0923,0.0922,0.0922,0.0922,0.0922,0.0361,0.0405,0.0522,0.0589,0.0634,0.0749,0.0846,0.0913,0.101,0.1156,0.1233,0.1287,0.1399,0.1337,0.1203,0.1097,0.1033,0.0982,0.0905,0.0834,0.0829,0.0819,0.081,0.0918,0.0918,0.0919,0.0919,0,0.0344,0.0384,0.0476,0.0568,0.0606,0.0676,0.0802,0.0889,0.0909,0.1052,0.1069,0.1109,0.1151,0.1081,0.1068,0.0988,0.0954,0.0933,0.0898,0.09,0.0811,0.0802,0.0906,0.0907,0.0908,0.0908,0.0909,0,0.0329,0.0387,0.0461,0.05,0.0595,0.064,0.0745,0.0767,0.0838,0.0958,0.0918,0.1006,0.0947,0.0974,0.0898,0.0882,0.0923,0.0789,0.0795,0.0786,0.0782,0.0753,0.0744,0.0824,0.0824,0.0823,0.0823,0,0.029,0.0383,0.0448,0.0478,0.0565,0.0595,0.0638,0.07,0.0752,0.081,0.0845,0.0886,0.0905,0.0888,0.0828,0.0786,0.0839,0.0797,0.0768,0.0766,0.0788,0.0785,0.0823,0.0823,0.0823,0.0823,0.0823,0,0.0274,0.0328,0.0405,0.0495,0.0519,0.0552,0.0622,0.0661,0.0717,0.073,0.0765,0.0773,0.078,0.0716,0.073,0.0704,0.0673,0.0641,0.0643,0.0655,0.0629,0.066,0.0718,0.0639,0.0637,0.0636,0.0635,0,0.023,0.0311,0.0335,0.041,0.046,0.047,0.0504,0.0542,0.0564,0.0614,0.0607,0.0646,0.0578,0.058,0.0587,0.0568,0.0577,0.0534,0.0606,0.0608,0.0606,0.0662,0.0661,0.0697,0.0619,0.0621,0.0622,0,0.0196,0.0267,0.0274,0.0315,0.0356,0.0392,0.0414,0.0461,0.0501,0.0495,0.0554,0.0533,0.0533,0.0542,0.0511,0.0516,0.0547,0.0487,0.0489,0.0497,0.0637,0.0637,0.0647,0.0568,0.057,0.0572,0.061,0,0.0199,0.0229,0.025,0.0295,0.0321,0.0355,0.0378,0.0384,0.0382,0.0408,0.0438,0.0423,0.0456,0.0434,0.0406,0.0452,0.0436,0.0446,0.0444,0.0475,0.0482,0.0492,0.0374,0.0374,0.0374,0.0373,0,0,0.0154,0.0194,0.0205,0.0243,0.0271,0.0269,0.0309,0.0319,0.0337,0.0357,0.033,0.0365,0.0355,0.0395,0.0384,0.0384,0.0398,0.0379,0.0449,0.0458,0.0465,0.0475,0.0484,0.0373,0.0373,0.0373,0.0373,0,0.016,0.0169,0.0194,0.0219,0.0252,0.0267,0.027,0.0297,0.0303,0.0322,0.0313,0.0316,0.0333,0.0345,0.0355,0.0377,0.0387,0.0373,0.0391,0.0446,0.0454,0.0462,0.0473,0.0481,0.0373,0.0373,0.0373,0,0.0145,0.0167,0.0174,0.0209,0.0228,0.026,0.025,0.0275,0.0296,0.0279,0.0296,0.0292,0.0304,0.0324,0.033,0.0325,0.0378,0.0349,0.035,0.0362,0.0419,0.0428,0.0436,0.0335,0.0335,0.0334,0,0,0.0149,0.0166,0.0196,0.0212,0.0226,0.0244,0.0257,0.0266,0.0278,0.0279,0.0279,0.0285,0.0299,0.0302,0.0316,0.0331,0.0352,0.0344,0.0346,0.0347,0.0359,0.0417,0.0425,0.0334,0.0334,0.0334,0,0,0.015,0.0183,0.0182,0.0206,0.0227,0.0259,0.0273,0.0272,0.0279,0.0275,0.0274,0.0275,0.0286,0.0291,0.0281,0.0317,0.031,0.0312,0.0312,0.0315,0.0317,0.0328,0.0284,0,0,0,0,0,0.0165,0.0181,0.0179,0.0186,0.0225,0.0259,0.0265,0.0276,0.0264,0.0272,0.0269,0.027,0.029,0.0282,0.0285,0.0299,0.0326,0.0327,0.0329,0.0333,0.0336,0.0338,0,0,0,0,0,0,0.0168,0.0176,0.0179,0.0211,0.0221,0.0259,0.0252,0.0256,0.0263,0.0262,0.0271,0.0271,0.0277,0.028,0.0283,0.0297,0.0283,0.0326,0.0328,0.0329,0.0334,0.0336,0.0338,0,0,0,0,0,0.017,0.0177,0.0234,0.0211,0.0219,0.024,0.0251,0.0254,0.0256,0.0272,0.0272,0.0261,0.0278,0.0279,0.0282,0.0296,0.0281,0.0282,0.0327,0.0328,0.0329,0.0335,0,0,0,0,0,0,0.0172,0.0181,0.0236,0.0239,0.0201,0.0238,0.0243,0.0252,0.0265,0.0266,0.0264,0.0263,0.0278,0.0279,0.0281,0.0295,0.028,0.0281,0.0281,0.0328,0.0329,0.0329,0,0,0,0,0,0,0.0177,0.0183,0.0238,0.0224,0.0225,0.0236,0.024,0.0254,0.0264,0.0255,0.0255,0.0263,0.0267,0.028,0.0281,0.0303,0.0279,0.028,0.028,0.0281,0.0328,0.0329,0,0,0,0,0,0,0.018,0.0185,0.0223,0.0224,0.0226,0.0264,0.0247,0.028,0.0272,0.0254,0.0269,0.0268,0.0267,0.0269,0.0281,0.0302,0.0302,0.0279,0.0279,0.028,0.028,0,0,0,0,0,0,0,0.0183,0.0144,0.0217,0.0225,0.0226,0.0271,0.0272,0.0273,0.0272,0.0271,0.027,0.0269,0.0273,0.0274,0.0275,0.0302,0,0,0.0279,0.0279,0,0,0,0,0,0,0,0,0.0142,0.0143,0.0217,0.0217,0.0218,0.0271,0.0272,0.0272,0.0271,0.0271,0.027,0.0269,0.0273,0.0274,0.0275,0,0,0,0,0,0,0,0,0,0,0,0,0,0,0,0.0217,0.0217,0,0.0271,0.0272,0.0272,0.0271,0.0271,0.027,0.0269,0.0274,0.0274,0.0275,0,0,0,0,0,0,0,0,0,0,0,0,0,0,0,0,0,0,0,0,0,0,0,0,0,0,0,0,0,0,0,0,0,0,0,0,0,0,0,0,0,0,0,0,0,0,0,0,0,0,0,0,0,0,0,0,0,0,0,0,0,0,0,0,0,0,0,0,0]}]],[[{"header":{"parameterUnit":"kt","parameterCategory":2,"dx":1,"dy":1,"la1":30.253999710083008,"la2":30.299108505249023,"lo1":-89.0895004272461,"lo2":-89.04439544677734,"nx":28,"ny":28,"refTime":"2022-10-29T21:00:00:Z","depth":"4","parameterNumber":2,"parameterNumberName":"U-component_of_CURRENTS"},"data":[0.0569,0.0537,0.0501,0.0385,0.0333,0.0244,0.0207,0.0243,0.024,0.0381,0.0501,0.0647,0.0857,0.0921,0.107,0.1103,0.115,0.1376,0.1372,0.1531,0.155,0.1566,0.1408,0,0,0,0,0,0.061,0.0557,0.0525,0.0476,0.0439,0.0422,0.0367,0.0358,0.0432,0.0461,0.0552,0.071,0.0904,0.1032,0.1069,0.1198,0.1391,0.1227,0.135,0.1543,0.1563,0.1402,0,0,0,0,0,0,0.0643,0.0619,0.0607,0.0604,0.0574,0.0476,0.0472,0.0454,0.0454,0.0612,0.0662,0.0908,0.1101,0.1209,0.1328,0.1403,0.1404,0.1363,0.1391,0.1412,0.1255,0.1066,0.1052,0,0,0,0,0,0.0675,0.07,0.0674,0.0669,0.0668,0.0608,0.0593,0.0576,0.0611,0.0732,0.083,0.096,0.1126,0.13,0.142,0.154,0.1695,0.1683,0.1694,0.1645,0.1531,0.1565,0.1563,0.1639,0.1642,0.1644,0.1645,0,0.0757,0.0726,0.0732,0.0723,0.074,0.0742,0.0718,0.0758,0.0737,0.0884,0.0882,0.1099,0.1201,0.138,0.1553,0.1716,0.1715,0.1735,0.1682,0.1562,0.1594,0.1586,0.1577,0.1661,0.166,0.1658,0.1657,0,0.0798,0.0794,0.0756,0.0757,0.0765,0.0764,0.0771,0.0763,0.0853,0.0892,0.0944,0.1104,0.1281,0.1431,0.1692,0.1662,0.1784,0.1784,0.1839,0.1884,0.1615,0.16,0.1688,0.1682,0.1677,0.1672,0.1669,0,0.0851,0.0822,0.083,0.0801,0.0789,0.078,0.0789,0.0821,0.0878,0.0878,0.1002,0.1077,0.1295,0.1432,0.1548,0.1633,0.1783,0.1655,0.1694,0.1804,0.179,0.1821,0.1807,0.1934,0.1933,0.1932,0.1931,0,0.0905,0.0866,0.0826,0.0814,0.0786,0.0801,0.0803,0.0833,0.0827,0.0942,0.1001,0.111,0.1224,0.1375,0.1516,0.1514,0.1744,0.1781,0.1682,0.1668,0.181,0.1797,0.1929,0.1929,0.1929,0.1929,0.1928,0,0.0944,0.0914,0.086,0.0826,0.0816,0.0822,0.0841,0.0826,0.0879,0.0923,0.0991,0.1064,0.1154,0.1203,0.1401,0.1358,0.1472,0.1561,0.1571,0.1382,0.1406,0.1595,0.1674,0.1672,0.167,0.1667,0.1665,0,0.0997,0.0939,0.0925,0.0889,0.0856,0.0877,0.0873,0.0866,0.0907,0.0953,0.1001,0.1069,0.1073,0.1147,0.1216,0.1351,0.1419,0.1324,0.1572,0.1577,0.1399,0.1431,0.1491,0.1633,0.1637,0.164,0.1642,0,0.1025,0.0984,0.0988,0.0972,0.0963,0.0936,0.0939,0.0917,0.0937,0.097,0.1001,0.1043,0.1098,0.1114,0.1161,0.1238,0.1369,0.1302,0.1309,0.1358,0.162,0.1417,0.1417,0.1475,0.1478,0.1481,0.162,0,0.1034,0.1022,0.1013,0.0998,0.0982,0.0964,0.0948,0.0969,0.1003,0.0993,0.1044,0.1095,0.1139,0.1164,0.1167,0.1246,0.1268,0.1314,0.1314,0.1348,0.1399,0.1417,0.1208,0.1208,0.1207,0.1207,0,0,0.1086,0.1046,0.1048,0.1025,0.1006,0.1029,0.0995,0.1001,0.1,0.0999,0.1039,0.1112,0.1142,0.1164,0.1165,0.1188,0.1256,0.1181,0.1313,0.1324,0.1335,0.1387,0.1404,0.1207,0.1207,0.1207,0.1207,0,0.107,0.1078,0.1057,0.1045,0.1027,0.1015,0.1021,0.1003,0.1014,0.1027,0.1056,0.11,0.1142,0.1152,0.1165,0.1184,0.1255,0.1215,0.1184,0.1308,0.132,0.133,0.1383,0.1399,0.1207,0.1207,0.1207,0,0.1086,0.1067,0.1058,0.1025,0.1023,0.0997,0.1007,0.0996,0.0985,0.1018,0.1044,0.1085,0.1107,0.1134,0.1156,0.1147,0.1244,0.1193,0.1194,0.1166,0.1294,0.1306,0.1317,0.1183,0.1183,0.1183,0,0,0.1085,0.1075,0.103,0.1018,0.1009,0.1003,0.0996,0.0994,0.0995,0.1011,0.104,0.107,0.1098,0.1116,0.114,0.1163,0.1203,0.119,0.1191,0.1192,0.1166,0.1292,0.1303,0.1183,0.1183,0.1183,0,0,0.1078,0.1032,0.1044,0.1011,0.0996,0.0959,0.0963,0.0972,0.0999,0.1017,0.1041,0.105,0.1097,0.1103,0.1095,0.115,0.1144,0.1147,0.1147,0.1148,0.1149,0.1111,0.1115,0,0,0,0,0,0.1054,0.1032,0.1043,0.1033,0.0991,0.0954,0.0952,0.0953,0.0983,0.0993,0.1018,0.1044,0.1095,0.1087,0.1096,0.1129,0.1179,0.118,0.118,0.1187,0.1189,0.119,0,0,0,0,0,0,0.105,0.1038,0.1042,0.1001,0.099,0.0956,0.0965,0.0967,0.0982,0.0988,0.1035,0.1043,0.105,0.1086,0.1093,0.1124,0.1112,0.1179,0.118,0.118,0.1188,0.1189,0.119,0,0,0,0,0,0.1046,0.1037,0.0972,0.1002,0.0993,0.098,0.0968,0.0969,0.1003,0.1001,0.1011,0.1006,0.1048,0.1059,0.109,0.112,0.1107,0.111,0.118,0.118,0.1181,0.1188,0,0,0,0,0,0,0.1043,0.1054,0.097,0.0967,0.1013,0.0984,0.0982,0.0971,0.102,0.1024,0.097,0.0974,0.1047,0.1055,0.1063,0.1118,0.1103,0.1106,0.1108,0.118,0.118,0.1181,0,0,0,0,0,0,0.1058,0.1052,0.0969,0.0983,0.0982,0.0988,0.0985,0.1008,0.1023,0.099,0.0991,0.0972,0.1052,0.1052,0.1059,0.1092,0.11,0.1103,0.1105,0.1106,0.118,0.1181,0,0,0,0,0,0,0.1055,0.105,0.0985,0.0984,0.0984,0.0956,0.1012,0.0988,0.0979,0.0991,0.0983,0.0985,0.105,0.1056,0.1055,0.1086,0.1091,0.11,0.1102,0.1103,0.1104,0,0,0,0,0,0,0,0.1053,0.109,0.0977,0.0985,0.0985,0.0934,0.0934,0.0934,0.098,0.0981,0.0983,0.0984,0.1086,0.1089,0.1091,0.1081,0,0,0.11,0.1101,0,0,0,0,0,0,0,0,0.1092,0.109,0.0976,0.0975,0.0974,0.0934,0.0934,0.0934,0.098,0.0981,0.0982,0.0983,0.1087,0.1089,0.1091,0,0,0,0,0,0,0,0,0,0,0,0,0,0,0,0.0976,0.0975,0,0.0934,0.0934,0.0934,0.098,0.0981,0.0982,0.0983,0.1087,0.1089,0.1091,0,0,0,0,0,0,0,0,0,0,0,0,0,0,0,0,0,0,0,0,0,0,0,0,0,0,0,0,0,0,0,0,0,0,0,0,0,0,0,0,0,0,0,0,0,0,0,0,0,0,0,0,0,0,0,0,0,0,0,0,0,0,0,0,0,0,0,0,0]}],[{"header":{"parameterUnit":"kt","parameterCategory":2,"dx":1,"dy":1,"la1":30.253999710083008,"la2":30.299108505249023,"lo1":-89.0895004272461,"lo2":-89.04439544677734,"nx":28,"ny":28,"refTime":"2022-10-29T21:00:00:Z","depth":"4","parameterNumber":3,"parameterNumberName":"V-component_of_CURRENTS"},"data":[0.0584,0.0686,0.0744,0.0916,0.1015,0.1196,0.1309,0.1392,0.1394,0.1467,0.1386,0.1383,0.1236,0.1383,0.1099,0.1071,0.0986,0.0921,0.0916,0.0824,0.0831,0.0836,0.0829,0,0,0,0,0,0.0563,0.0638,0.0746,0.0894,0.1035,0.1133,0.1309,0.1389,0.1509,0.1518,0.1537,0.1478,0.132,0.1263,0.1126,0.1143,0.0989,0.0973,0.0895,0.0828,0.0835,0.0826,0,0,0,0,0,0,0.0538,0.0598,0.0711,0.084,0.099,0.1141,0.123,0.1353,0.1451,0.155,0.1553,0.1499,0.1491,0.1302,0.1187,0.1063,0.1008,0.0925,0.0926,0.0932,0.0938,0.0954,0.0916,0,0,0,0,0,0.0526,0.0575,0.0668,0.081,0.094,0.1093,0.1252,0.1321,0.1458,0.1514,0.1538,0.1478,0.143,0.1302,0.1186,0.1054,0.0987,0.0936,0.0937,0.0893,0.09,0.0868,0.0871,0.0861,0.0862,0.0863,0.0863,0,0.05,0.0557,0.0717,0.079,0.0868,0.1013,0.1125,0.1248,0.1334,0.144,0.1495,0.1505,0.1499,0.1321,0.1226,0.1057,0.1014,0.0955,0.0908,0.0911,0.0877,0.0878,0.0879,0.0869,0.0868,0.0868,0.0867,0,0.0488,0.0562,0.0678,0.0822,0.0877,0.0964,0.1142,0.1226,0.1282,0.1392,0.1426,0.1454,0.1409,0.1343,0.1241,0.1144,0.1035,0.0986,0.1077,0.1043,0.089,0.0889,0.0878,0.0876,0.0874,0.0873,0.0871,0,0.0493,0.0573,0.0696,0.0752,0.0873,0.0952,0.107,0.1117,0.1214,0.1303,0.1306,0.1357,0.1312,0.1291,0.1197,0.1095,0.1128,0.0982,0.0946,0.1004,0.1002,0.0971,0.0965,0.1023,0.1023,0.1023,0.1023,0,0.0455,0.059,0.0683,0.0729,0.0859,0.0921,0.0991,0.1065,0.1134,0.1194,0.1233,0.1266,0.1299,0.1233,0.1165,0.1146,0.1099,0.1053,0.0955,0.0951,0.0969,0.0963,0.1023,0.1023,0.1023,0.1023,0.1023,0,0.0459,0.053,0.0641,0.0766,0.0797,0.0863,0.0962,0.1024,0.1095,0.1115,0.1165,0.1175,0.122,0.1162,0.1135,0.1133,0.1078,0.1028,0.1025,0.0949,0.0884,0.0906,0.0968,0.0967,0.0967,0.0967,0.0967,0,0.0412,0.0519,0.0562,0.0673,0.0736,0.0778,0.0844,0.0907,0.0936,0.0995,0.1022,0.1076,0.1051,0.1073,0.1069,0.1028,0.1025,0.1025,0.0938,0.0936,0.0882,0.0925,0.0981,0.0964,0.0964,0.0964,0.0965,0,0.0369,0.0474,0.0486,0.0539,0.0613,0.066,0.0728,0.0801,0.0845,0.0882,0.0947,0.0996,0.0992,0.1013,0.101,0.1002,0.1016,0.0954,0.0951,0.0947,0.0983,0.0927,0.0923,0.0977,0.0978,0.0979,0.0962,0,0.0377,0.0424,0.0453,0.0518,0.0559,0.0614,0.066,0.0694,0.0713,0.0746,0.0809,0.0818,0.0864,0.0871,0.0872,0.0924,0.0897,0.0861,0.0833,0.0878,0.0863,0.0865,0.0818,0.0816,0.0815,0.0814,0,0,0.0317,0.0372,0.0388,0.0438,0.0479,0.049,0.0547,0.058,0.0629,0.0658,0.0637,0.0712,0.072,0.0798,0.082,0.0815,0.0795,0.0828,0.0856,0.086,0.0865,0.0854,0.0857,0.0812,0.0812,0.0811,0.0811,0,0.032,0.0336,0.0371,0.0407,0.0453,0.048,0.0492,0.054,0.0561,0.0613,0.0612,0.0639,0.0684,0.0712,0.0731,0.0793,0.0765,0.0798,0.0862,0.0845,0.0852,0.0857,0.0848,0.0852,0.0808,0.0808,0.0808,0,0.0293,0.0322,0.0338,0.0385,0.0413,0.0462,0.0449,0.0493,0.0536,0.0518,0.0573,0.0579,0.0598,0.0651,0.0671,0.0656,0.0729,0.0718,0.0724,0.0737,0.0717,0.0725,0.0732,0.0641,0.064,0.064,0,0,0.0291,0.0321,0.036,0.0388,0.0406,0.0438,0.046,0.0477,0.0506,0.0516,0.0532,0.0551,0.0583,0.0601,0.0621,0.067,0.0649,0.07,0.0708,0.0714,0.0731,0.0713,0.0721,0.0639,0.0639,0.0639,0,0,0.0293,0.034,0.0339,0.0375,0.0407,0.0453,0.0475,0.0484,0.051,0.051,0.0517,0.0521,0.0563,0.0562,0.0545,0.0625,0.0588,0.0592,0.0641,0.065,0.0658,0.0674,0.0535,0,0,0,0,0,0.0312,0.0336,0.0334,0.0344,0.0402,0.0452,0.0461,0.0479,0.0474,0.0489,0.0502,0.0498,0.0555,0.054,0.0547,0.0593,0.0624,0.0627,0.0629,0.0702,0.0712,0.072,0,0,0,0,0,0,0.0316,0.0327,0.0334,0.0379,0.0393,0.0451,0.0442,0.0448,0.0472,0.0472,0.0497,0.0499,0.0505,0.0537,0.0543,0.0587,0.0533,0.0625,0.0627,0.0629,0.0705,0.0713,0.0721,0,0,0,0,0,0.0319,0.0328,0.0413,0.038,0.0392,0.0424,0.0441,0.0446,0.0464,0.0485,0.0488,0.0476,0.0506,0.0511,0.0541,0.0584,0.0528,0.0531,0.0626,0.0628,0.063,0.0709,0,0,0,0,0,0,0.0322,0.0335,0.0416,0.0421,0.0367,0.0421,0.0429,0.0444,0.0475,0.0479,0.0463,0.0462,0.0506,0.051,0.0515,0.0584,0.0525,0.0527,0.0529,0.0628,0.0629,0.063,0,0,0,0,0,0,0.0331,0.0339,0.0419,0.0401,0.0404,0.0419,0.0425,0.0454,0.0475,0.0451,0.0452,0.0462,0.0492,0.051,0.0513,0.0558,0.0522,0.0524,0.0526,0.0527,0.0629,0.063,0,0,0,0,0,0,0.0335,0.0342,0.04,0.0402,0.0405,0.0461,0.0443,0.0496,0.0477,0.0449,0.0474,0.0472,0.0491,0.0495,0.0513,0.0556,0.0557,0.0522,0.0524,0.0525,0.0526,0,0,0,0,0,0,0,0.0338,0.0281,0.0388,0.0403,0.0405,0.0467,0.0468,0.047,0.0476,0.0475,0.0474,0.0473,0.0509,0.0512,0.0514,0.0554,0,0,0.0522,0.0523,0,0,0,0,0,0,0,0,0.0278,0.028,0.0388,0.0389,0.039,0.0467,0.0468,0.0469,0.0476,0.0475,0.0474,0.0473,0.051,0.0512,0.0514,0,0,0,0,0,0,0,0,0,0,0,0,0,0,0,0.0388,0.0389,0,0.0467,0.0468,0.0469,0.0476,0.0475,0.0475,0.0474,0.051,0.0512,0.0514,0,0,0,0,0,0,0,0,0,0,0,0,0,0,0,0,0,0,0,0,0,0,0,0,0,0,0,0,0,0,0,0,0,0,0,0,0,0,0,0,0,0,0,0,0,0,0,0,0,0,0,0,0,0,0,0,0,0,0,0,0,0,0,0,0,0,0,0,0]}]]]